Location: *
(50.5492°N, 7.7469°E)
Time: 14:27:18
(UTC+00:00)

STARLINK-38 - Pass Details

Date: 21 October 2019
Orbit: 548 x 551 km, 53.0° (Epoch: 16 November)

Event Time Altitude Azimuth Distance (km) Brightness Sun altitude
Rises 16:57:32 0° 263° (W) 2,714 10.0 -5.8°
Reaches altitude 10° 16:59:47 10° 266° (W) 1,822 8.1 -6.1°
Maximum altitude 17:03:54 67° 350° (N) 599 3.8 -6.8°
Drops below altitude 10° 17:08:02 10° 73° (ENE) 1,827 5.6 -7.4°
Enters shadow 17:08:11 - 74° (ENE) 1,885 5.7 -7.4°
